Location: ??????
(38.1303°N, 24.0039°E)
Time: 03:01:31
(UTC+00:00)

GPS 2-04 Rocket1 - Pass Details

Date: 20 June 2021
Orbit: 415 x 539 km, 35.6° (Epoch: 05 August)

Event Time Altitude Azimuth Distance (km) Brightness Sun altitude
Exits shadow 02:17:30 - 269° (W) 2,142 5.4 -7.9°
Reaches altitude 10° 02:18:37 10° 266° (W) 1,710 4.8 -7.7°
Maximum altitude 02:22:22 45° 193° (SSW) 670 2.9 -7.1°
Drops below altitude 10° 02:25:58 10° 119° (ESE) 1,634 5.6 -6.6°
Sets 02:28:09 0° 113° (ESE) 2,485 6.6 -6.2°
